Chatawa, MS

1:31 PM CDT on August 29, 2016 (GMT -0500)
McComb-Pike County-Lewis

Weather History for KMCB - April, 2013

Change the Weather History Date:

Tuesday, April 9, 2013

  Actual Average Record
Temperature  
Mean Temperature 76 °F -  
Max Temperature 84 °F 74 °F 88 °F (1965)
Min Temperature 69 °F 50 °F 36 °F (1957)
Cooling Degree Days 10    
Growing Degree Days 26 (Base 50)    
Moisture  
Dew Point 68 °F    
Average Humidity 83    
Maximum Humidity 93    
Minimum Humidity 58    
Precipitation  
Precipitation 0.00 in - - ()
Sea Level Pressure  
Sea Level Pressure 29.96 in    
Wind  
Wind Speed 12 mph (SSE)    
Max Wind Speed 21 mph    
Max Gust Speed 28 mph    
Visibility 10 miles    
Events Thunderstorm    
Averages and records for this station are not official NWS values.
T = Trace of Precipitation, MM = Missing Value Source: NWS Daily Summary

Daily Weather History Graph

Daily Weather History Graph

Search for Another Location

Airport or City:

Trip Planner

Search our weather history database for the weather conditions in past years. The results will help you decide how hot, cold, wet, or windy it might be!

Date:

Astronomy

Apr. 09, 2013 Rise Set
Actual Time 6:40 AM CDT 7:26 PM CDT
Civil Twilight 6:15 AM CDT 7:51 PM CDT
Nautical Twilight 5:46 AM CDT 8:20 PM CDT
Astronomical Twilight 5:17 AM CDT 8:50 PM CDT
Moon 6:01 AM CDT (4/9) 7:01 PM CDT (4/9)
Length of Visible Light 13h 35m
Length of Day
12h 45m
Waning Crescent, 1% of the Moon is Illuminated
Apr 9
Waning Crescent
Apr 10
New
Apr 18
First Quarter
Apr 25
Full
May 2
Last Quarter

Hourly Weather History & Observations

Time (CDT) Temp. Heat Index Dew Point Humidity Pressure Visibility Wind Dir Wind Speed Gust Speed Precip Events Conditions
12:53 AM 70.0 °F - 64.9 °F 84% 29.95 in 10.0 mi SSE 10.4 mph - N/A   Overcast
1:53 AM 69.1 °F - 66.0 °F 90% 29.94 in 10.0 mi SSE 9.2 mph - N/A   Overcast
2:18 AM 69.8 °F - 66.2 °F 88% 29.94 in 10.0 mi SSE 9.2 mph - N/A   Overcast
2:53 AM 69.1 °F - 66.9 °F 93% 29.91 in 10.0 mi SSE 6.9 mph - N/A   Overcast
3:37 AM 69.8 °F - 66.2 °F 88% 29.92 in 10.0 mi SSE 6.9 mph - N/A   Overcast
3:53 AM 70.0 °F - 66.9 °F 90% 29.91 in 10.0 mi SSE 8.1 mph - N/A   Overcast
4:53 AM 70.0 °F - 66.9 °F 90% 29.91 in 10.0 mi SSE 10.4 mph - N/A   Overcast
5:05 AM 69.8 °F - 66.2 °F 88% 29.92 in 10.0 mi SSE 12.7 mph 18.4 mph N/A   Mostly Cloudy
5:15 AM 69.8 °F - 66.2 °F 88% 29.92 in 10.0 mi SSE 15.0 mph 19.6 mph N/A   Overcast
5:35 AM 71.6 °F - 66.2 °F 83% 29.93 in 10.0 mi SSE 15.0 mph 18.4 mph 0.00 in Thunderstorm Overcast
5:53 AM 71.1 °F - 66.0 °F 84% 29.92 in 10.0 mi SSE 15.0 mph - 0.00 in Thunderstorm Overcast
5:58 AM 69.8 °F - 66.2 °F 88% 29.94 in 10.0 mi SSE 12.7 mph - N/A Thunderstorm Overcast
6:28 AM 69.8 °F - 66.2 °F 88% 29.95 in 10.0 mi SSE 10.4 mph - N/A   Overcast
6:53 AM 71.1 °F - 66.9 °F 87% 29.95 in 10.0 mi SSE 13.8 mph - N/A   Overcast
7:53 AM 71.1 °F - 66.9 °F 87% 29.96 in 10.0 mi SSE 12.7 mph 20.7 mph N/A   Overcast
8:38 AM 71.6 °F - 68.0 °F 88% 29.99 in 10.0 mi SSE 13.8 mph 19.6 mph N/A   Overcast
8:46 AM 71.6 °F - 68.0 °F 88% 29.99 in 10.0 mi SSE 10.4 mph - N/A   Overcast
8:53 AM 72.0 °F - 68.0 °F 87% 29.98 in 10.0 mi SSE 11.5 mph 19.6 mph N/A   Overcast
9:10 AM 71.6 °F - 68.0 °F 88% 29.99 in 10.0 mi SSE 11.5 mph - N/A   Overcast
9:17 AM 71.6 °F - 68.0 °F 88% 29.99 in 10.0 mi SSE 12.7 mph - N/A   Overcast
9:53 AM 73.0 °F - 69.1 °F 87% 29.99 in 10.0 mi SSE 9.2 mph - N/A   Overcast
10:53 AM 75.0 °F - 69.1 °F 82% 30.00 in 10.0 mi South 16.1 mph 24.2 mph N/A   Overcast
11:53 AM 79.0 °F - 70.0 °F 74% 30.01 in 10.0 mi South 16.1 mph 24.2 mph N/A   Overcast
12:53 PM 79.0 °F - 69.1 °F 72% 29.99 in 10.0 mi South 18.4 mph 27.6 mph N/A   Overcast
1:53 PM 82.0 °F 84.9 °F 68.0 °F 62% 29.97 in 10.0 mi South 16.1 mph 26.5 mph N/A   Mostly Cloudy
2:53 PM 81.0 °F 83.8 °F 68.0 °F 65% 29.95 in 10.0 mi SSE 15.0 mph 24.2 mph N/A   Mostly Cloudy
3:53 PM 82.0 °F 84.1 °F 66.0 °F 58% 29.94 in 10.0 mi South 20.7 mph 27.6 mph N/A   Mostly Cloudy
4:53 PM 82.0 °F 84.9 °F 68.0 °F 62% 29.93 in 10.0 mi SSE 20.7 mph 27.6 mph N/A   Clear
5:53 PM 80.1 °F 82.9 °F 69.1 °F 69% 29.96 in 10.0 mi SSE 15.0 mph 21.9 mph N/A   Mostly Cloudy
6:53 PM 75.9 °F - 69.1 °F 79% 29.97 in 10.0 mi SSE 12.7 mph 19.6 mph N/A   Scattered Clouds
7:19 PM 75.2 °F - 69.8 °F 83% 29.98 in 10.0 mi SSE 10.4 mph - N/A   Mostly Cloudy
7:53 PM 73.9 °F - 69.1 °F 85% 29.97 in 10.0 mi SE 10.4 mph - N/A   Overcast
8:53 PM 73.0 °F - 69.1 °F 87% 29.97 in 8.0 mi SE 10.4 mph 18.4 mph N/A   Overcast
9:53 PM 73.0 °F - 69.1 °F 87% 29.95 in 10.0 mi SSE 17.3 mph 24.2 mph N/A   Overcast
10:26 PM 73.4 °F - 69.8 °F 88% 29.99 in 10.0 mi South 15.0 mph 26.5 mph N/A   Overcast
10:36 PM 73.4 °F - 69.8 °F 88% 29.98 in 10.0 mi SSE 15.0 mph 21.9 mph N/A   Overcast
10:43 PM 73.4 °F - 68.0 °F 83% 29.98 in 10.0 mi SSE 13.8 mph 21.9 mph N/A   Overcast
10:50 PM 73.4 °F - 68.0 °F 83% 29.98 in 10.0 mi SSE 15.0 mph 21.9 mph N/A   Overcast
10:53 PM 73.0 °F - 68.0 °F 84% 29.97 in 10.0 mi SSE 9.2 mph 21.9 mph N/A   Overcast
11:05 PM 73.4 °F - 68.0 °F 83% 29.98 in 10.0 mi South 15.0 mph 20.7 mph N/A   Overcast
11:53 PM 73.0 °F - 68.0 °F 84% 29.96 in 10.0 mi SSE 12.7 mph - N/A   Overcast